Track GLOBALSTAR M091 now! 10-day predictions GLOBALSTAR M091 is classified as:
1 37741U 11033C 23089.51078972 -.00000091 00000-0 71302-4 0 9999 2 37741 51.9991 218.1429 0000388 124.5636 312.1650 12.62265984541194